User: anonymous   Login
Location: Caltech
(34.1382°N, 118.1253°W)
Time: 22:15:57
(UTC-07:00)
Language:

MaSat-1 - Orbit

View from above orbital plane
View from above orbital plane
View from above satellite
View from above satellite

Ground track
Ground track

The orbit data is extracted from the following two-line orbital elements,

1 38081U 12006E   15009.86954674  .36181825  49011-5  43735-3 0  7888
2 38081 069.4150 141.5751 0006093 101.2598 259.4750 16.49686879155248
Epoch (UTC): 09 January 2015 20:52:08
Eccentricity: 0.0006093
inclination: 69.4150°
perigee height: 136 km
apogee height: 144 km
right ascension of ascending node: 141.5751°
argument of perigee: 101.2598°
revolutions per day: 16.49686879
mean anomaly at epoch: 259.4750°
orbit number at epoch: 15524

The dashed part of the orbit path shows where the satellite is in the earth's shadow,  

DLR